Time,TemperatureF,DewpointF,PressureIn,WindDirection,WindDirectionDegrees,WindSpeedMPH,WindSpeedGustMPH,Humidity,HourlyPrecipIn,Conditions,Clouds,dailyrainin,SoftwareType,DateUTC
2014-10-01 00:13:00,55.1,51.0,30.12,NE,38,0.0,2.0,85,0.00,,,0.00,weatherlink.com 1.10,2014-10-01 07:13:00,
2014-10-01 00:28:00,54.6,51.0,30.12,NE,38,0.0,1.0,86,0.00,,,0.00,weatherlink.com 1.10,2014-10-01 07:28:00,
2014-10-01 00:43:00,54.2,51.0,30.13,NE,38,0.0,2.0,87,0.00,,,0.00,weatherlink.com 1.10,2014-10-01 07:43:00,
2014-10-01 00:58:00,54.0,50.0,30.13,NE,38,0.0,0.0,87,0.00,,,0.00,weatherlink.com 1.10,2014-10-01 07:58:00,
2014-10-01 01:28:00,53.7,50.0,30.14,NE,38,0.0,0.0,87,0.00,,,0.00,weatherlink.com 1.10,2014-10-01 08:28:00,
2014-10-01 01:43:00,53.6,50.0,30.14,NE,38,0.0,2.0,88,0.00,,,0.00,weatherlink.com 1.10,2014-10-01 08:43:00,
2014-10-01 01:58:00,53.1,50.0,30.14,NE,38,0.0,1.0,89,0.00,,,0.00,weatherlink.com 1.10,2014-10-01 08:58:00,
2014-10-01 02:13:00,52.7,50.0,30.14,NE,38,0.0,2.0,90,0.00,,,0.00,weatherlink.com 1.10,2014-10-01 09:13:00,
2014-10-01 02:28:00,52.9,50.0,30.14,NE,40,0.0,3.0,90,0.00,,,0.00,weatherlink.com 1.10,2014-10-01 09:28:00,
2014-10-01 02:44:00,53.0,50.0,30.14,NE,40,0.0,0.0,89,0.00,,,0.00,weatherlink.com 1.10,2014-10-01 09:44:00,
2014-10-01 02:59:00,52.8,50.0,30.15,NE,40,0.0,0.0,90,0.00,,,0.00,weatherlink.com 1.10,2014-10-01 09:59:00,
2014-10-01 03:14:00,52.1,50.0,30.14,NE,41,0.0,1.0,91,0.00,,,0.00,weatherlink.com 1.10,2014-10-01 10:14:00,
2014-10-01 03:29:00,51.9,49.0,30.14,NE,40,0.0,0.0,91,0.00,,,0.00,weatherlink.com 1.10,2014-10-01 10:29:00,
2014-10-01 03:44:00,51.9,50.0,30.14,NE,41,0.0,0.0,92,0.00,,,0.00,weatherlink.com 1.10,2014-10-01 10:44:00,
2014-10-01 03:59:00,51.9,50.0,30.14,NE,40,0.0,0.0,92,0.00,,,0.00,weatherlink.com 1.10,2014-10-01 10:59:00,
2014-10-01 04:14:00,52.0,50.0,30.14,NE,41,0.0,0.0,92,0.00,,,0.00,weatherlink.com 1.10,2014-10-01 11:14:00,
2014-10-01 04:29:00,52.1,50.0,30.15,NE,40,0.0,0.0,92,0.00,,,0.00,weatherlink.com 1.10,2014-10-01 11:29:00,
2014-10-01 04:44:00,52.0,50.0,30.15,NE,40,0.0,0.0,92,0.00,,,0.00,weatherlink.com 1.10,2014-10-01 11:44:00,
2014-10-01 04:59:00,52.0,50.0,30.15,NE,40,0.0,0.0,93,0.00,,,0.00,weatherlink.com 1.10,2014-10-01 11:59:00,
2014-10-01 05:14:00,51.8,50.0,30.15,NE,41,0.0,0.0,93,0.00,,,0.00,weatherlink.com 1.10,2014-10-01 12:14:00,
2014-10-01 05:29:00,51.8,50.0,30.16,NE,40,0.0,0.0,93,0.00,,,0.00,weatherlink.com 1.10,2014-10-01 12:29:00,
2014-10-01 05:44:00,51.7,50.0,30.15,NE,40,0.0,0.0,93,0.00,,,0.00,weatherlink.com 1.10,2014-10-01 12:44:00,
2014-10-01 05:59:00,51.7,50.0,30.16,NE,40,0.0,1.0,93,0.00,,,0.00,weatherlink.com 1.10,2014-10-01 12:59:00,
2014-10-01 06:14:00,51.7,50.0,30.16,NE,40,0.0,0.0,93,0.00,,,0.00,weatherlink.com 1.10,2014-10-01 13:14:00,
2014-10-01 06:29:00,51.6,50.0,30.16,NE,40,0.0,0.0,93,0.00,,,0.00,weatherlink.com 1.10,2014-10-01 13:29:00,
2014-10-01 06:44:00,51.4,50.0,30.16,NE,40,0.0,0.0,93,0.00,,,0.00,weatherlink.com 1.10,2014-10-01 13:44:00,
2014-10-01 06:59:00,51.4,50.0,30.16,NE,41,0.0,0.0,93,0.00,,,0.00,weatherlink.com 1.10,2014-10-01 13:59:00,
2014-10-01 07:14:00,51.5,50.0,30.16,NE,40,0.0,0.0,94,0.00,,,0.00,weatherlink.com 1.10,2014-10-01 14:14:00,
2014-10-01 07:29:00,51.5,50.0,30.16,NE,40,0.0,0.0,93,0.00,,,0.00,weatherlink.com 1.10,2014-10-01 14:29:00,
2014-10-01 07:44:00,52.0,50.0,30.16,NE,40,0.0,2.0,94,0.00,,,0.00,weatherlink.com 1.10,2014-10-01 14:44:00,
2014-10-01 07:59:00,52.7,51.0,30.16,SSW,192,3.0,4.0,94,0.00,,,0.00,weatherlink.com 1.10,2014-10-01 14:59:00,
2014-10-01 08:14:00,53.2,51.0,30.17,SSW,192,0.0,4.0,93,0.00,,,0.00,weatherlink.com 1.10,2014-10-01 15:14:00,
2014-10-01 08:29:00,53.6,52.0,30.17,South,191,3.0,6.0,93,0.00,,,0.00,weatherlink.com 1.10,2014-10-01 15:29:00,
2014-10-01 08:44:00,53.9,52.0,30.17,South,191,2.0,6.0,93,0.00,,,0.00,weatherlink.com 1.10,2014-10-01 15:44:00,
2014-10-01 08:59:00,54.3,52.0,30.18,South,191,0.0,4.0,92,0.00,,,0.00,weatherlink.com 1.10,2014-10-01 15:59:00,
2014-10-01 09:14:00,54.6,52.0,30.18,SSW,196,0.0,5.0,92,0.00,,,0.00,weatherlink.com 1.10,2014-10-01 16:14:00,
2014-10-01 09:29:00,55.7,53.0,30.18,SSW,209,5.0,6.0,90,0.00,,,0.00,weatherlink.com 1.10,2014-10-01 16:29:00,
2014-10-01 09:44:00,55.8,52.0,30.19,South,190,5.0,7.0,88,0.00,,,0.00,weatherlink.com 1.10,2014-10-01 16:44:00,
2014-10-01 09:59:00,55.4,52.0,30.19,South,183,1.0,6.0,88,0.00,,,0.00,weatherlink.com 1.10,2014-10-01 16:59:00,
2014-10-01 10:14:00,55.3,52.0,30.19,South,183,1.0,6.0,89,0.00,,,0.00,weatherlink.com 1.10,2014-10-01 17:14:00,
2014-10-01 10:29:00,55.6,53.0,30.19,South,183,1.0,3.0,89,0.00,,,0.00,weatherlink.com 1.10,2014-10-01 17:29:00,
2014-10-01 10:44:00,55.7,53.0,30.18,South,184,0.0,5.0,89,0.00,,,0.00,weatherlink.com 1.10,2014-10-01 17:44:00,
2014-10-01 10:59:00,56.2,52.0,30.18,South,184,2.0,4.0,87,0.00,,,0.00,weatherlink.com 1.10,2014-10-01 17:59:00,
2014-10-01 11:14:00,56.5,52.0,30.18,South,184,0.0,4.0,86,0.00,,,0.00,weatherlink.com 1.10,2014-10-01 18:14:00,
2014-10-01 11:29:00,57.1,53.0,30.18,SSW,194,2.0,3.0,86,0.00,,,0.00,weatherlink.com 1.10,2014-10-01 18:29:00,
2014-10-01 11:44:00,57.8,53.0,30.17,SSW,194,1.0,5.0,84,0.00,,,0.00,weatherlink.com 1.10,2014-10-01 18:44:00,
2014-10-01 11:59:00,59.0,53.0,30.17,SW,218,6.0,8.0,80,0.00,,,0.00,weatherlink.com 1.10,2014-10-01 18:59:00,
2014-10-01 12:14:00,58.6,52.0,30.17,SSW,193,5.0,10.0,80,0.00,,,0.00,weatherlink.com 1.10,2014-10-01 19:14:00,
2014-10-01 12:29:00,58.9,52.0,30.16,South,190,3.0,7.0,78,0.00,,,0.00,weatherlink.com 1.10,2014-10-01 19:29:00,
2014-10-01 12:44:00,58.8,52.0,30.16,SSW,194,5.0,9.0,77,0.00,,,0.00,weatherlink.com 1.10,2014-10-01 19:44:00,
2014-10-01 12:59:00,59.2,52.0,30.16,SW,232,3.0,8.0,76,0.00,,,0.00,weatherlink.com 1.10,2014-10-01 19:59:00,
2014-10-01 13:14:00,59.7,52.0,30.16,South,187,7.0,11.0,76,0.00,,,0.00,weatherlink.com 1.10,2014-10-01 20:14:00,
2014-10-01 13:29:00,60.0,52.0,30.16,SW,218,5.0,9.0,76,0.00,,,0.00,weatherlink.com 1.10,2014-10-01 20:29:00,